This demonstration page uses our WeatherBlox Daily Observations layout. Learn more.

Left ArrowRight Arrow

Hourly Observations for June 25, 2021

Temp ( °F °C ) Dew Point ( °F °C ) Humidity (%) Winds ( mph kmh ) Pressure ( in mb ) Visibility ( mi km ) Precip ( " mm )
12:51 am 00:51 Mostly Clear 83 28.3 53 11.7 36 36 WNW 13 20 29.74 1007 10 16 N/A
1:51 am 01:51 Mostly Clear 81 27.2 53 11.7 38 38 NW 9 15 29.73 1007 10 16 N/A
2:51 am 02:51 Clear 82 27.8 54 12.2 38 38 NW 8 13 29.73 1007 10 16 N/A
3:51 am 03:51 Clear 78 25.6 53 11.7 42 42 NNW 5 7 29.74 1007 10 16 N/A
4:51 am 04:51 Clear 79 26.1 53 11.7 41 41 NW 9 15 29.75 1008 10 16 N/A
5:51 am 05:51 Sunny 79 26.1 53 11.7 41 41 NW 8 13 29.76 1008 10 16 N/A
6:51 am 06:51 Sunny 85 29.4 54 12.2 35 35 WNW 10 17 29.77 1008 10 16 N/A
7:51 am 07:51 Sunny 88 31.1 55 12.8 33 33 WSW 9 15 29.78 1008 10 16 N/A
8:51 am 08:51 Sunny 91 32.8 50 10 25 25 NW 9 15 29.77 1008 10 16 N/A
9:51 am 09:51 Mostly Sunny 93 33.9 47 8.3 21 21 NNW 10 17 29.76 1008 10 16 N/A
10:51 am 10:51 Partly Cloudy 96 35.6 47 8.3 19 19 NNW 17 28 29.74 1007 10 16 N/A
11:51 am 11:51 Sunny 96 35.6 46 7.8 18 18 VRB 3 6 29.71 1006 10 16 N/A
12:51 pm 12:51 Mostly Sunny 98 36.7 46 7.8 17 17 NW 13 20 29.69 1006 10 16 N/A
1:51 pm 13:51 Mostly Cloudy 101 38.3 45 7.2 15 15 NNW 18 30 29.67 1005 10 16 N/A
2:12 pm 14:12 Mostly Cloudy 101 38.3 43 6.1 14 14 NW 20 31 29.54 1000 10 16 N/A
2:51 pm 14:51 Cloudy 101 38.3 39 3.9 12 12 W 21 33 29.64 1004 10 16 N/A
3:51 pm 15:51 Mostly Cloudy 101 38.3 41 5 13 13 WNW 17 28 29.62 1003 10 16 N/A
4:51 pm 16:51 Mostly Cloudy 100 37.8 41 5 13 13 W 16 26 29.61 1003 10 16 N/A
5:51 pm 17:51 Mostly Cloudy 98 36.7 38 3.3 12 12 WNW 20 31 29.60 1003 10 16 N/A
6:51 pm 18:51 Mostly Cloudy 96 35.6 37 2.8 13 13 W 16 26 29.61 1003 10 16 N/A
7:51 pm 19:51 Mostly Cloudy 92 33.3 36 2.2 14 14 W 12 19 29.63 1004 10 16 N/A
8:51 pm 20:51 Partly Cloudy 86 30 37 2.8 18 18 NW 7 11 29.67 1005 10 16 N/A
9:51 pm 21:51 Mostly Clear 85 29.4 37 2.8 18 18 NW 9 15 29.68 1005 10 16 N/A
10:51 pm 22:51 Mostly Clear 83 28.3 39 3.9 21 21 NW 10 17 29.67 1005 10 16 N/A
11:51 pm 23:51 Clear 82 27.8 39 3.9 22 22 NW 10 17 29.67 1005 10 16 N/A

Powered by AerisWeather